Wind_Speed
33 31 28 27 27 27 26 24 23 22 20 19 18 16 15 14 13 12 11 11 11 10 10 10 10 10 10 10 10 10 9 8 8 8 7 7 6 5 5 4 3 3 2
38 35 33 31 30 29 28 27 26 25 23 22 21 19 18 16 16 15 13 12 12 12 12 11 11 11 11 10 10 10 9 9 8 7 7 7 6 6 5 4 3 3 3
42 40 38 35 33 33 32 31 29 27 26 25 24 22 21 19 18 17 16 15 14 14 14 13 13 12 12 11 11 11 10 9 9 8 8 7 7 6 5 4 4 4 4
44 43 42 40 38 36 33 32 32 30 28 27 26 25 24 22 21 21 19 18 16 16 16 15 15 14 14 13 12 12 11 10 9 9 8 8 7 6 5 5 5 5 6
44 44 44 44 43 40 38 34 34 33 31 29 29 27 26 25 24 24 23 21 20 19 18 17 17 16 16 15 14 13 12 11 10 10 9 9 8 7 7 6 6 7 7
41 43 44 45 45 44 42 39 37 36 34 32 31 30 29 28 27 27 25 24 23 22 20 19 19 18 17 17 16 15 14 13 12 11 10 10 9 9 8 8 8 8 9
38 41 43 45 46 45 45 43 41 38 37 35 33 31 31 31 30 30 29 27 26 25 23 22 21 20 20 19 18 17 16 15 14 13 12 11 11 10 10 10 10 10 11
34 37 40 42 44 45 45 45 44 41 40 38 36 34 33 32 32 32 32 30 30 28 27 26 24 23 22 21 20 19 18 17 16 15 15 14 13 12 12 12 12 12 13
29 33 36 39 41 43 44 44 44 44 42 40 38 36 35 33 33 34 34 33 32 31 29 29 27 25 24 23 23 21 20 19 18 17 17 16 15 14 14 14 14 14 14
25 28 31 34 37 40 42 44 44 44 44 42 40 37 36 36 34 34 35 36 36 33 31 31 30 29 27 26 25 23 23 21 20 19 18 18 17 16 16 16 16 16 16
21 24 28 31 34 37 39 41 43 44 44 43 42 40 39 38 37 36 35 36 38 37 36 34 33 31 30 29 28 26 25 23 22 22 21 20 19 19 18 18 18 18 18
18 21 24 27 31 34 37 39 41 43 43 44 43 42 40 39 38 38 37 36 38 39 38 37 35 34 33 32 31 29 28 26 25 24 23 22 21 21 21 20 20 19 19
16 19 21 24 27 30 34 36 38 40 43 44 44 44 42 40 39 39 39 37 37 39 39 38 37 36 35 34 33 32 30 28 26 25 24 24 23 23 22 21 21 20 20
15 17 20 22 25 28 31 34 36 38 41 43 44 45 44 42 43 41 40 40 40 38 38 38 39 39 38 36 34 33 32 30 29 27 26 25 24 24 23 22 22 22 21
15 16 18 20 23 26 29 32 35 37 39 42 44 45 46 44 44 42 41 41 42 41 39 37 38 39 39 38 37 36 34 32 31 30 28 27 26 25 24 23 23 23 23
15 15 16 17 19 22 26 28 32 35 37 40 42 43 46 46 45 44 44 42 43 42 40 39 38 39 39 39 38 37 35 34 34 32 30 29 28 27 26 25 25 24 24
16 15 15 15 16 19 21 25 29 31 34 37 40 41 43 45 46 45 45 43 42 42 43 42 40 38 39 39 39 38 36 35 35 34 32 31 29 28 28 27 26 26 26
18 17 16 15 14 15 18 20 24 28 32 35 37 40 42 43 44 45 45 45 44 43 43 43 42 40 38 39 40 39 38 37 36 35 34 32 31 30 30 30 29 28 27
20 19 17 15 14 14 15 17 20 23 27 31 34 37 39 42 42 43 44 45 45 43 43 43 43 42 41 40 40 39 38 37 36 35 35 34 33 32 32 31 30 29 28
21 20 18 15 14 13 13 15 17 20 23 26 30 33 36 39 40 42 44 45 46 45 44 44 44 44 42 41 41 40 39 38 37 37 36 35 35 35 35 34 32 30 29
23 21 18 16 14 12 12 13 16 19 21 24 27 30 33 36 38 41 42 44 45 46 44 44 44 44 43 42 41 40 40 40 39 38 38 38 38 37 36 35 33 31 29
24 23 20 17 15 12 11 11 13 16 19 21 24 27 30 32 35 37 40 42 43 44 45 44 43 43 43 43 42 40 40 41 40 39 39 39 38 36 35 35 33 31 30
25 24 22 19 16 13 11 10 11 12 15 17 20 24 27 29 32 34 36 39 41 42 42 41 41 41 41 41 43 43 41 41 40 39 39 38 37 36 34 34 33 31 29
26 25 23 21 18 15 13 10 8 9 10 13 16 20 23 26 28 31 34 35 37 39 39 39 39 39 40 40 41 42 41 40 39 39 38 37 36 35 34 33 31 28 27
27 25 24 22 19 16 14 12 10 8 9 10 13 16 19 22 25 28 31 34 35 36 37 38 38 38 40 39 38 37 37 37 37 37 36 35 35 34 33 31 28 27 26
28 26 25 23 21 18 15 13 11 9 8 9 10 13 15 19 22 24 28 31 32 33 34 35 36 35 36 37 36 35 34 35 34 35 35 34 33 32 29 28 27 26 25
Wind_Direction
252 252 249 247 241 238 239 239 238 236 234 235 234 233 229 223 217 211 210 208 203 197 191 190 185 184 184 185 185 184 182 183 183 180 181 180 177 180 180 173 175 189 210
253 253 249 248 245 241 240 240 239 237 237 237 234 232 229 224 220 215 211 210 207 203 199 196 193 192 189 189 188 186 186 186 187 187 187 185 186 186 185 191 207 227 246
253 253 251 249 248 245 243 241 241 239 238 237 234 231 229 225 222 218 215 214 213 210 206 203 202 201 198 197 196 194 192 191 191 192 191 190 191 194 204 213 229 246 261
252 251 251 249 248 247 244 243 241 240 238 237 234 232 228 226 224 222 220 218 217 215 212 210 208 207 205 204 204 203 201 201 200 200 199 198 202 209 219 230 243 255 266
253 250 249 248 247 246 245 244 243 242 239 237 235 233 229 228 226 225 224 222 221 219 217 215 213 211 210 210 210 210 209 209 208 208 209 212 217 224 233 243 253 262 270
251 250 248 246 246 246 245 245 243 243 241 238 235 233 230 229 227 226 226 226 224 222 221 219 217 215 214 214 214 215 216 216 218 219 221 223 228 235 243 253 261 269 276
250 249 248 246 245 245 246 246 245 244 241 239 237 236 232 229 228 228 228 228 225 224 223 222 221 219 218 218 219 219 221 223 225 227 229 232 236 242 251 259 267 273 278
251 249 247 247 245 245 245 244 243 242 241 239 238 237 236 232 231 230 229 227 226 226 225 224 224 223 222 222 222 223 225 226 229 232 236 240 243 248 255 262 269 273 277
252 250 247 246 245 245 244 243 243 242 242 240 238 237 236 234 232 230 228 227 226 226 226 226 225 225 225 224 225 226 228 229 232 236 239 244 248 253 259 264 269 273 276
256 251 248 247 246 245 244 244 244 243 242 239 238 236 234 233 233 232 230 228 226 226 227 227 227 228 227 226 226 228 230 232 234 238 241 244 249 254 259 264 268 271 276
262 256 251 248 247 246 245 244 243 242 240 239 238 237 236 234 234 235 232 229 228 227 229 229 229 228 228 229 229 231 232 234 237 240 243 246 250 255 260 263 266 271 275
271 262 256 251 248 247 245 244 243 241 239 238 237 238 237 235 234 234 233 231 229 228 228 230 230 230 230 231 232 232 234 236 239 242 244 247 251 256 260 263 265 269 273
280 270 262 256 252 248 245 243 242 240 239 238 237 236 236 235 234 233 232 230 230 229 230 231 232 232 233 233 233 233 234 237 239 242 246 249 253 256 258 262 265 269 273
291 279 270 262 255 250 247 244 242 240 238 237 236 236 235 235 233 233 232 231 230 230 231 233 234 234 234 234 233 234 236 238 240 243 247 250 252 255 257 260 264 268 271
304 290 279 269 260 254 250 246 242 240 238 237 236 236 234 234 233 234 232 231 231 231 232 234 234 233 233 233 233 235 237 239 241 244 247 249 252 254 257 259 263 267 270
320 308 293 278 267 259 252 247 242 240 238 236 236 235 235 234 234 234 233 232 232 232 231 232 233 232 232 232 233 236 238 240 241 242 246 248 251 253 255 259 262 266 271
333 321 307 291 278 265 256 249 243 240 238 236 236 235 234 234 235 235 234 233 231 232 231 230 233 234 234 233 233 235 237 239 240 242 244 248 250 253 256 259 262 267 271
340 333 320 305 289 272 262 254 246 241 239 237 235 234 234 234 234 234 234 234 232 232 231 230 232 234 236 236 235 236 236 238 239 240 243 247 251 253 255 258 262 266 269
347 341 333 318 303 285 269 258 249 244 240 238 236 235 234 234 234 234 234 234 234 233 232 231 232 235 237 238 236 235 237 238 239 240 243 246 250 253 256 259 262 264 266
353 348 342 331 316 298 281 266 254 247 243 241 238 236 234 234 234 234 234 234 234 234 234 232 232 234 236 237 236 236 238 239 240 242 245 247 250 252 255 258 260 261 263
357 354 351 344 332 314 294 277 262 251 246 242 239 237 235 234 233 233 234 234 234 235 236 235 234 234 235 236 236 237 238 240 241 244 246 247 250 252 254 257 258 260 261
1 358 356 350 343 330 311 290 273 257 248 244 241 239 237 236 234 233 233 232 233 235 236 237 237 235 235 236 236 236 238 239 241 243 244 247 251 252 253 255 255 258 260
3 1 0 357 352 345 330 309 286 267 256 249 243 239 237 236 235 234 233 232 233 234 235 237 238 235 235 234 235 236 237 238 240 241 244 247 248 249 251 254 255 256 257
3 2 2 360 356 351 345 334 311 285 265 253 246 242 239 235 233 233 232 232 232 233 234 234 235 235 235 235 235 236 236 237 239 239 243 245 245 247 250 252 253 253 253
3 3 3 2 0 356 349 340 328 304 279 262 253 247 241 235 233 233 232 232 231 231 231 231 232 234 234 234 234 234 234 237 239 240 240 242 243 246 248 248 248 248 249
4 4 3 2 2 360 354 348 338 321 295 273 261 251 244 237 233 234 231 229 230 230 230 230 230 230 232 233 233 234 236 238 238 238 238 240 240 242 241 242 243 244 246
Height
5859 5861 5863 5865 5866 5868 5871 5873 5875 5877 5879 5880 5882 5884 5885 5886 5887 5888 5889 5891 5892 5894 5895 5896 5897 5899 5900 5901 5902 5904 5905 5906 5907 5908 5909 5910 5910 5911 5912 5913 5913 5913 5913
5852 5854 5857 5858 5860 5862 5865 5867 5869 5872 5874 5876 5878 5880 5882 5883 5885 5886 5887 5889 5890 5892 5893 5895 5896 5898 5899 5901 5902 5903 5904 5905 5906 5907 5908 5909 5910 5911 5912 5912 5913 5913 5913
5843 5846 5849 5851 5853 5856 5858 5861 5863 5866 5869 5871 5873 5876 5878 5880 5882 5883 5885 5886 5888 5890 5891 5893 5895 5896 5898 5900 5901 5903 5904 5905 5906 5907 5908 5909 5910 5910 5911 5911 5912 5912 5912
5834 5837 5840 5843 5846 5849 5852 5855 5857 5860 5863 5865 5868 5871 5873 5876 5878 5880 5882 5884 5886 5887 5889 5891 5893 5894 5896 5898 5900 5901 5903 5904 5905 5906 5907 5908 5909 5909 5910 5910 5911 5911 5911
5824 5827 5831 5834 5837 5841 5844 5848 5850 5853 5856 5859 5862 5865 5868 5871 5873 5876 5878 5880 5882 5884 5886 5888 5890 5892 5894 5896 5898 5900 5901 5903 5904 5905 5906 5907 5907 5908 5909 5909 5909 5909 5909
5815 5818 5821 5825 5828 5832 5836 5840 5843 5846 5849 5852 5855 5858 5862 5865 5868 5871 5873 5876 5879 5881 5883 5885 5887 5889 5891 5893 5895 5897 5899 5901 5902 5903 5904 5905 5906 5907 5907 5908 5908 5908 5908
5806 5808 5811 5815 5819 5823 5827 5831 5834 5838 5842 5845 5848 5852 5855 5858 5862 5865 5868 5871 5874 5876 5879 5881 5884 5886 5888 5890 5892 5895 5896 5898 5900 5901 5902 5903 5904 5905 5905 5906 5906 5906 5905
5797 5800 5802 5806 5809 5813 5817 5821 5825 5829 5834 5837 5841 5844 5848 5852 5855 5859 5862 5865 5868 5871 5874 5877 5880 5882 5884 5887 5889 5891 5893 5895 5897 5898 5899 5900 5901 5902 5903 5903 5903 5903 5903
5790 5792 5794 5797 5800 5804 5808 5812 5816 5820 5824 5829 5833 5837 5841 5845 5848 5851 5855 5859 5862 5866 5869 5872 5875 5877 5880 5882 5885 5887 5889 5891 5893 5895 5896 5897 5898 5899 5899 5900 5900 5900 5899
5784 5785 5787 5789 5792 5795 5798 5802 5806 5811 5815 5820 5824 5828 5833 5837 5840 5845 5848 5852 5856 5859 5863 5866 5869 5872 5875 5878 5880 5883 5885 5887 5889 5891 5892 5893 5894 5895 5896 5896 5896 5896 5896
5778 5779 5780 5782 5784 5786 5789 5793 5797 5801 5806 5811 5815 5819 5824 5828 5833 5837 5840 5844 5848 5852 5856 5859 5863 5866 5869 5872 5875 5878 5880 5883 5884 5886 5888 5889 5890 5891 5892 5892 5892 5892 5892
5772 5772 5773 5774 5776 5778 5780 5784 5787 5792 5796 5801 5806 5810 5815 5819 5824 5829 5833 5836 5840 5844 5848 5852 5856 5860 5863 5866 5869 5872 5875 5877 5880 5881 5883 5885 5886 5887 5887 5887 5887 5887 5887
5768 5767 5767 5767 5768 5770 5772 5775 5778 5782 5787 5792 5796 5801 5806 5811 5815 5820 5824 5828 5832 5836 5840 5845 5849 5853 5856 5860 5863 5866 5869 5872 5874 5876 5878 5880 5881 5882 5882 5882 5883 5883 5882
5763 5761 5761 5760 5761 5762 5764 5766 5769 5773 5777 5782 5787 5792 5796 5801 5806 5810 5815 5820 5824 5828 5833 5837 5841 5845 5849 5853 5856 5859 5863 5866 5868 5870 5872 5874 5875 5876 5877 5877 5878 5878 5877
5758 5756 5755 5754 5754 5755 5756 5757 5760 5764 5767 5772 5777 5782 5787 5792 5797 5801 5806 5811 5816 5820 5825 5829 5832 5836 5840 5845 5849 5852 5856 5859 5861 5864 5866 5868 5869 5870 5871 5872 5872 5872 5872
5755 5752 5749 5748 5747 5747 5748 5749 5752 5755 5758 5763 5767 5772 5777 5782 5787 5792 5797 5802 5807 5812 5816 5820 5824 5828 5832 5837 5841 5844 5848 5852 5854 5857 5859 5861 5863 5864 5865 5866 5866 5866 5866
5751 5748 5745 5743 5741 5740 5741 5742 5744 5746 5750 5754 5758 5763 5767 5772 5777 5782 5787 5792 5797 5802 5807 5812 5815 5819 5824 5828 5833 5836 5840 5844 5847 5850 5852 5854 5856 5857 5859 5860 5860 5860 5860
5749 5744 5741 5738 5736 5735 5735 5735 5736 5739 5742 5745 5749 5754 5758 5763 5768 5773 5778 5783 5788 5793 5798 5803 5807 5811 5816 5820 5825 5829 5832 5836 5839 5842 5844 5847 5849 5850 5851 5852 5853 5853 5854
5746 5741 5737 5734 5732 5730 5730 5730 5730 5732 5735 5738 5741 5745 5749 5754 5759 5764 5769 5774 5779 5783 5788 5793 5798 5803 5807 5811 5816 5820 5824 5828 5831 5834 5836 5839 5841 5843 5844 5845 5846 5846 5847
5745 5739 5735 5731 5728 5726 5725 5725 5726 5727 5729 5731 5734 5737 5741 5745 5750 5754 5759 5764 5769 5774 5779 5784 5789 5794 5798 5802 5807 5811 5816 5819 5823 5826 5828 5831 5833 5834 5836 5837 5838 5839 5839
5744 5738 5733 5729 5726 5723 5722 5721 5721 5722 5723 5725 5727 5730 5733 5737 5741 5745 5750 5755 5760 5765 5769 5774 5779 5784 5789 5793 5798 5803 5807 5810 5814 5817 5820 5822 5824 5826 5828 5829 5830 5831 5832
5743 5738 5732 5728 5724 5721 5719 5717 5716 5716 5717 5719 5720 5723 5725 5729 5733 5737 5741 5746 5751 5756 5761 5766 5770 5775 5781 5785 5789 5793 5798 5802 5805 5809 5811 5813 5816 5818 5820 5821 5822 5823 5824
5743 5737 5731 5727 5722 5719 5716 5714 5712 5712 5712 5713 5714 5716 5719 5722 5725 5729 5733 5737 5742 5747 5752 5757 5762 5766 5771 5775 5780 5784 5788 5792 5796 5799 5802 5804 5806 5809 5812 5813 5814 5816 5817
5743 5737 5731 5726 5721 5718 5715 5712 5710 5709 5708 5709 5709 5711 5712 5715 5718 5722 5725 5730 5734 5738 5744 5749 5754 5758 5762 5766 5770 5774 5778 5782 5786 5789 5793 5795 5798 5801 5804 5806 5807 5809 5810
5743 5737 5731 5726 5721 5717 5714 5711 5708 5706 5705 5705 5705 5706 5707 5709 5712 5715 5718 5722 5726 5730 5735 5740 5745 5749 5753 5758 5762 5766 5770 5773 5777 5781 5784 5787 5790 5793 5796 5798 5800 5802 5803
5744 5738 5732 5726 5721 5717 5713 5710 5707 5704 5703 5702 5701 5702 5702 5704 5706 5709 5711 5715 5719 5723 5728 5732 5737 5741 5745 5749 5754 5757 5761 5766 5769 5773 5776 5780 5782 5785 5788 5791 5793 5795 5797